Regional Weather Roundup
Issued by NWS

Home | Current Version | Previous Version | Graphics & Text | Print | Product List | Glossary On
Versions: 1 2 3 4 5 6 7 8 9 10 11 12 13 14 15 16 17 18 19 20 21 22 23 24 25 26 27 28 29 30 31 32 33 34 35 36 37 38 39 40 41 42 43 44 45 46 47 48 49 50
000
ASUS43 KLMK 300602
RWRKY
KENTUCKY REGIONAL WEATHER ROUNDUP
NATIONAL WEATHER SERVICE LOUISVILLE KY
200 AM EDT TUE AUG 30 2016

NOTE "FAIR" INDICATES FEW OR NO CLOUDS BELOW 12,000 FEET
WITH NO SIGNIFICANT WEATHER AND/OR OBSTRUCTIONS TO VISIBILITY.

KYZ001>023-026-027-061>063-070>075-300700-
WESTERN AND SOUTH CENTRAL KENTUCKY

CITY           SKY/WX    TMP DP  RH WIND       PRES   REMARKS
PADUCAH        CLEAR     76  72  87 CALM      30.09F
HENDERSON      CLEAR     72  68  88 CALM      30.11S
OWENSBORO      CLEAR     78  74  87 CALM      30.12F
HOPKINSVILLE   CLEAR     75  73  91 E5        30.10F
BOWLING GREEN  CLEAR     74  70  87 NE3       30.11F
GLASGOW        CLEAR     71  71 100 NE5       30.13S
$$

KYZ024-025-028>034-038-045-046-053-300700-
NORTH CENTRAL KENTUCKY

CITY           SKY/WX    TMP DP  RH WIND       PRES   REMARKS
LOUISVILLE/SDF CLEAR     77  71  82 CALM      30.13F
LOUISVILLE/LOU CLEAR     77  70  79 CALM      30.14F
FORT KNOX      CLEAR     74  70  87 NE5       30.12F
$$

KYZ035>037-039>044-047>052-055>060-089>105-300700-
NORTHEAST KENTUCKY

CITY           SKY/WX    TMP DP  RH WIND       PRES   REMARKS
LEXINGTON      CLEAR     74  68  81 NE3       30.16F
COVINGTON      CLEAR     77  70  79 NE8       30.17S
FRANKFORT      CLEAR     73  70  90 N3        30.14F
$$

KYZ054-064>069-076>088-106>120-300700-
SOUTHEAST KENTUCKY

CITY           SKY/WX    TMP DP  RH WIND       PRES   REMARKS
JACKSON        CLEAR     71  69  93 CALM      30.17S
LONDON         CLEAR     71  66  84 N3        30.16S
SOMERSET       CLEAR     70  68  94 CALM      30.15F
MIDDLESBORO    CLOUDY    70  70 100 CALM      30.16S
MONTICELLO     CLEAR    N/A N/A N/A N14       30.15F
$$





USA.gov is the U.S. government's official web portal to all federal, state and local government web resources and services.